Flag Weather past 2 weeks in Ancona, Italy

Now
59 °F

Fog.


Feels Like: 57 °F
Forecast: 54 / 63 °F
Wind: 12 mph from Northwest

Location: Falconara

Current Time: Oct 31, 2014 at 4:55:43 PM

Latest Report: Oct 31, 2014 at 3:50 PM


Visibility: 2 mi

Pressure: 30.27 "Hg

Humidity: 77%

Dew point: 52 °F

Location of AnconaLocation

Historic Weather in Ancona — Graph

°F

Ancona temperature yesterday

Maximum temperature yesterday: 59 °F (at 11:50 AM)
Minimum temperature yesterday: 46 °F (at 3:50 AM)
Average temperature yesterday: 53 °F

Past Weeks' High & Low Weather Summary

 TemperatureHumidityPressure
High79 °F (Oct 17, 11:50 AM)100% (Oct 18, 7:50 PM)30.30 "Hg (Oct 18, 7:50 PM)
Low46 °F (Oct 30, 3:50 AM)33% (Oct 23, 3:50 AM)29.53 "Hg (Oct 22, 4:50 AM)
Average60 °F77%30.07 "Hg
* Reported Oct 16 3:50 PM — Oct 31 2:50 PM, Ancona, Weather by CustomWeather, © 2014

Note: Actual official high and low records may vary slightly from our data, if they occured in-between our weather recording intervals... More about our weather records

Advertising

Ancona weather history for previous 24 hours

 ConditionsComfort  
Time TempWeatherWind HumidityBarometerVisibility
2:50 PM
Oct 31
59 °FFog.12 mph77%30.27 "Hg2 mi
1:50 PM59 °FFog.14 mph72%30.27 "Hg2 mi
12:50 PM59 °FFog.13 mph72%30.27 "Hg1 mi
11:50 AM57 °FFog.13 mph72%30.30 "Hg1 mi
10:50 AM55 °FFog.10 mph72%30.30 "Hg1 mi
9:50 AM55 °FFog.10 mph72%30.30 "Hg1 mi
8:50 AM54 °FFog.5 mph77%30.27 "Hg2 mi
7:50 AM52 °FFog.3 mph82%30.27 "Hg2 mi
6:50 AM50 °FFog.5 mph82%30.27 "Hg1 mi
5:50 AM52 °FPassing clouds.9 mph82%30.27 "Hg4 mi
4:50 AM54 °FPassing clouds.7 mph82%30.27 "Hg4 mi
3:50 AM52 °FPassing clouds.3 mph82%30.24 "Hg4 mi
2:50 AM52 °FPassing clouds.7 mph82%30.27 "Hg4 mi
1:50 AM54 °FPassing clouds.7 mph77%30.27 "Hg4 mi
12:50 AM52 °FPassing clouds.5 mph82%30.27 "Hg4 mi
11:50 PM
Oct 30
52 °FPassing clouds.5 mph82%30.27 "Hg4 mi
10:50 PM54 °FPassing clouds.5 mph77%30.27 "Hg5 mi
9:50 PM54 °FPassing clouds.5 mph77%30.27 "HgN/A
8:50 PM54 °FPassing clouds.5 mph77%30.24 "HgN/A
7:50 PM52 °FClear.5 mph82%30.24 "Hg5 mi
6:50 PM54 °FClear.3 mph77%30.24 "Hg5 mi
5:50 PM54 °FClear.7 mph82%30.24 "Hg4 mi
4:50 PM57 °FClear.12 mph77%30.21 "Hg4 mi
Weather by CustomWeather, © 2014

See weather overviewHow to use our weather pages